Dakar 2012 11ème étape

Dakar 2012 Argentine/Chili/Perou 11ème étape

Source : http://dakar.sport.francetv.fr/tous-les-classements

jeudi 12 janvier : Liaison 120km - Spécial 478km

Classement de la 11èmeétape Moto - Arica - Arequipa

RangNuméroPilote/EquipageEquipeMarque - ModèleTempsRetard
1 002 DESPRES Cyril TEAM RED BULL KTM KTM - 450cc Rally 04:03:37
2 020 FARRES GUELL Gerard BORDONE-FERRARI KTM - 450 RALLY REPLICA 04:05:16 00:01:39
3 001 COMA Marc KTM MRW RALLY DAKAR EAM KTM - 450 cc 04:05:38 00:02:01
4 021 AUBERT JOHNNY KTM RALLY FACTORY TEAM KTM - 450 RALLY 04:07:07 00:03:30
5 023 BARREDA BORT Joan HUSQVARNA RALLYE TEAM BY SPEEDBRAIN HUSQVARNA - Rally 450 RR 04:08:30 00:04:53
6 028 ZANOL FELIPE KTM BRASIL KTM - 450 Replica 04:09:14 00:05:37
7 010 VILADOMS Jordi BORDONE-FERRARI KTM - Rally Replica 04:09:31 00:05:54
8 003 RODRIGUES Helder TEAM YAMAHA RACING YAMAHA - WRF 450 04:11:21 00:07:44
9 006 ULLEVALSETER Pal Anders TEAM ULLEVALSETER KTM - 450 R 04:11:21 00:07:44
10 032 SVITKO Stefan HANT LOGOMOTION SLOVAKIA KTM - 450 RR 04:13:55 00:10:18
11 015 VERHOEVEN Frans SHERCO RALLY RAID - CROCOAVENTURES SHERCO - SR 450 04:14:31 00:10:54
12 034 BOTTURI ALESSANDRO BORDONE-FERRARI KTM - 450 RALLY REPLICA 04:17:12 00:13:35
13 016 PAIN Olivier TEAM YAMAHA RACING YAMAHA - 450 YZF Rally 04:20:30 00:16:53
14 064 SCHRÖDER DANIEL MEMO TOURS - ALFIE COX TEAM KTM - 450cc 04:21:04 00:17:27
15 007 GONCALVES Paulo HUSQVARNA RALLYE TEAM BY SPEEDBRAIN Husqvarna - Rally 450 RR 04:22:12 00:18:35
16 012 PELLICER Jose Manuel HUSQVARNA RALLYE TEAM BY SPEEDBRAIN HUSQVARNA - Rally 450 RR 04:23:16 00:19:39
17 110 BIRCH Christopher MEMO TOURS - ALFIE COX TEAM KTM - 450 Replica 04:24:26 00:20:49
18 018 KNUIMAN Henk WIM MOTORS DAKAR KTM - 450 REPLICA 04:26:02 00:22:25
19 022 DUCLOS Alain GIOFIL APRILIA APRILIA - RXV 4.5 Rally 04:28:35 00:24:58
20 017 CZACHOR Jacek ORLEN TEAM KTM - 450 Replica 04:29:30 00:25:53
21 026 RODRIGUES FILHO Jose helio HUSQVARNA RALLYE TEAM BY SPEEDBRAIN HUQSVARNA - RALLY 450 RR 04:30:26 00:26:49
22 089 NASCIMENTO DENISIO PETROBRAS LUBRAX HONDA - CRF 450 04:31:44 00:28:07
23 039 GYENES Emanuel VECTRA RACING KTM - 450 RR 04:32:01 00:28:24
24 035 CECI Paolo BORDONE-FERRARI KTM - 450 RR 04:32:29 00:28:52
25 144 CURTIS Darryl MEMO TOURS - ALFIE COX TEAM KTM - 450 Replica 04:32:34 00:28:57
26 040 SERRADORI Mathieu KTM - 450 Rally 04:33:12 00:29:35
27 048 LIEFHEBBER Hans-jos KTM - 450 RR 04:35:33 00:31:56
28 033 BETHYS Thierry YAMAHA - 450 YZF Rally 04:35:45 00:32:08
29 014 CASTEU David TEAM YAMAHA RACING YAMAHA - 450 WRF Rally 04:36:01 00:32:24
30 043 PISANO Michael MP CONCEPT KTM - 450 RR 04:37:05 00:33:28
31 050 SALVATIERRA Juan Carlos GHR HONDA HONDA - CRF450X 04:50:55 00:47:18
32 057 WILLEMSEN Daniel TEAM HONDA EUROPE HONDA - CRF 450 X 04:54:23 00:50:46
33 060 WATT Stanley FRONT ROW GB / CRECENT KTM KTM - 450 RR 04:55:00 00:51:23
34 049 DABROWSKI Marek ORLEN TEAM KTM - 450 RR 04:57:51 00:54:14
35 183 RODRIGUEZ Pablo HONDA RACING ARGENTINA HONDA - CRF450X 04:58:45 00:55:08
36 159 CHITTICK Jamie GHR HONDA HONDA - CRF450X 05:04:27 01:00:50
37 062 SCHWARZ David HUSABERG RALLYE RACING AUSTRALIA HUSABERG - FE450 05:04:35 01:00:58
38 008 FARIA Ruben TEAM RED BULL KTM KTM - 450 CC RALLY 05:05:53 01:02:16
39 045 SANZ PLA-GILIBERT Eulalia GAS GAS GAS - GAS - EC 450 05:07:18 01:03:41
40 046 BIANCHI PRATA Pedro TEAM BIANCHI PRATA / VODAFONE HUSQUARNA - TE449 RALLY 05:07:35 01:03:58
41 077 PICCO Franco FRANCO PICCO RACING YAMAHA - WRF 450 05:09:14 01:05:37
42 138 LECOQ SEBASTIEN TEAM PERFORMANCE ENDURO YAMAHA - 450 YZFE 05:10:32 01:06:55
43 086 MUNK Jes X-RAGE RACING KTM - 450 05:13:55 01:10:18
44 071 BUTUZA Marcel BOANO HONDA - CRE F 450 X 05:14:52 01:11:15
45 154 GAJDOSECH ROBERTO ANTONIO ATUEL MOTOS YAMAHA - WR 450 05:15:02 01:11:25
46 059 CIOTTI Filippo FRANCO PICCO RACING RIEJU - MRT 450 05:15:50 01:12:13
47 082 GUINDANI Vincent HFP YAMAHA - YZR 450 05:16:18 01:12:41
48 042 PROHENS Jaime TAMARUGAL HONDA RACING XC RALLY TEAM HONDA - CRF 450X RALLY 05:16:41 01:13:04
49 148 GOMEZ Mauricio PACO GOMEZ RALLY TEAM YAMAHA - WR 450 05:16:47 01:13:10
50 041 PROHENS Felipe TAMARUGAL HONDA RACING XC RALLY TEAM HONDA (Transformada) - CRF450X RALLY 05:17:59 01:14:22
51 069 PAYEN Hugo YAMAHA - 450 WRF 05:23:46 01:20:09
52 185 SANCHEZ MARCELO TEAM RPM KAWASAKI KAWASAKI - KLX 450 R 05:24:21 01:20:44
53 092 HAMARD Stephane REUNION RALLYE RAID KTM - 450 RR 05:28:00 01:24:23
54 081 SUESSE NED ADVRIDER/ NEDURO KTM - 450XCW 05:29:08 01:25:31
55 068 BARROT David POWERBIKE YAMAHA IPONE YAMAHA - 450 IZF RALLY 05:29:43 01:26:06
56 087 MEILLAT Christophe C.M PROMO KAWASAKI - KLX 450 R 05:30:11 01:26:34
57 100 VESELY Jan CZECH DAKAR TEAM YAMAHA - WR 450F 05:31:29 01:27:52
58 165 MULDER GEERT TEAM HONDA EUROPE HONDA - CFR 450 X 05:32:39 01:29:02
59 072 GOUNON SERGE EMS KTM - 450 RR 05:33:18 01:29:41
60 168 GUIRAL DEMIAN AVANT MOTOS HONDA GENUINE OIL HONDA - CRF 450X 05:33:24 01:29:47
61 073 BONY BRUNO EMS KTM - 450 RR 05:33:30 01:29:53
62 181 RIOS FELIPE KTM PERU RALLY TEAM KTM - Rally Replica 05:36:20 01:32:43
63 061 MATTOS Dimas BRASIL MOTO TOUR KTM - 450 RR 05:36:49 01:33:12
64 149 CIPKA DUSAN SLOVAKIA TURBOTEAM ZATKO BMW - G450X 05:39:34 01:35:57
65 029 BERGLUND Thomas HUSABERG RALLY TEAM SCANDINAVIA HUSABERG - FE 450 05:41:19 01:37:42
66 177 VAN GEEL MARCO TEAM HONDA EUROPE HONDA - CFR 450 X 05:44:09 01:40:32
67 122 PALANTE Eric WIM MOTORS RACING DIVISION KTM - 450 RR FREVA 05:48:23 01:44:46
68 080 PASCUAL Pablo oscar JINCHENG TEAM JINCHENG - JC450Y 05:55:23 01:51:46
69 085 PENATE MUNOZ Pedro Manuel KH7 VALSEBIKE KTM - 450 05:56:22 01:52:45
70 076 PEDERZOLI Claudio ON-OFF RACING TEAM YAMAHA - WR 450 06:00:51 01:57:14
71 075 BUSIN Pablo MOTO TEAM BY ELF YAMAHA - 450 WR 06:07:46 02:04:09
72 136 IGARIS GINTAUTAS YAMAHA - WR450F 06:11:47 02:08:10
73 066 LORMAND Etienne ROUSSILL'HOTEL - HFP YAMAHA - 450 WRF 06:13:05 02:09:28
74 058 PUERTAS HERRERA Miguel HIMOINSA DAKAR TEAM YAMAHA - 450 WR 06:13:18 02:09:41
75 164 DEMELCHORI DIEGO TEAM RPM KAWASAKI KAWASAKI - 2009 06:14:39 02:11:02
76 065 LAZARD Laurent MOTO TEAM BY ELF YAMAHA - WR 450 06:18:17 02:14:40
77 093 GOMEZ Jorge VEMOTOR CANARIAS Husqvarna - 450cc 06:18:28 02:14:51
78 120 ILLANES Rodrigo TARAPACA RALLY TEAM Husqvarna - TE 449 06:20:01 02:16:24
79 107 BODINGER Ronnie HUSABERG FACTORY TEAM HUSABERG - FE 450 06:20:40 02:17:03
80 074 KOFMAN Erik KTM - 450 RR 06:21:02 02:17:25
81 053 RODRIGUEZ Claudio TAMARUGAL HONDA RACING XC RALLY TEAM HONDA - CRF 450 X 06:24:56 02:21:19
82 056 MENARD Jean-Christophe HFP YAMAHA - 450 YZF 06:25:56 02:22:19
83 176 RAAF Greg MEMO TOURS - ALFIE COX TEAM KTM - 450 Replica 06:47:34 02:43:57
84 102 ALAN Eduardo ELF ARGENTINA Yamaha - WR 450 07:03:43 03:00:06
85 125 ASTORI Gianernesto ABC RALLY ACTION TEAM KTM - 450 RR 07:05:48 03:02:11
86 111 ESPINASSE SYLVAIN SHERCO RALLY RAID - CROCOAVENTURES SHERCO - SR 450 07:06:13 03:02:36
87 145 NUTTALL Dean MEMO TOURS - ALFIE COX TEAM KTM - 450 Replica 07:10:45 03:07:08
88 129 DEPOORTER Philippe WIM MOTORS DAKAR KTM - 450 07:22:02 03:18:25
89 099 CHERPIN Pierre KTM - 450 RR 07:22:44 03:19:07
90 158 VELLUTINO Carlo PERUANOS AL DAKAR KTM - 450 EXC 2011 07:25:06 03:21:29
91 091 TONETTI NICOLA TEAM BOANO HONDA - CRF 450 X 07:34:58 03:31:21
92 174 MARTÍNEZ Paco PACO MARTINEZ KAWASAKI - KX450 07:41:36 03:37:59
93 152 TER BEEK RONALD GHR HONDA HONDA - CFR 450 X 07:54:32 03:50:55
94 112 GUYOMARC?H Yannick SCE PERFORMANCE / ASA POMPIERS DE PARIS YAMAHA - WRF 08:00:59 03:57:22
95 140 REINIKE MARCO MARCO REINIKE KTM - 450 RALLY REPLICA 08:01:43 03:58:06
96 128 ANO Julio TEAM NORMAND RAID YAMAHA - WRF 450 08:07:09 04:03:32
97 150 BELAUSTEGUI Luis FREEDOM RALLY RACING KTM - SX 150 09:22:16 05:18:39
98 151 BEALUSTEGUI Juan Manuel AL LIMITE DAKAR 2012 YAMAHA - WR 450 F 09:37:15 05:33:38
99 094 WEI Guanghui JINCHENG TEAM JINCHENG - JC 450Y 09:44:35 05:40:58
100 131 THEURIOT Herve REVIVAL AVENTURES YAMAHA - 450 WRF 11:54:58 07:51:21

Classement général Moto

RangNuméroPilote/EquipageEquipeMarque - ModèleTempsRetard
1 002 DESPRES Cyril TEAM RED BULL KTM KTM - 450cc Rally 37:11:16
2 001 COMA Marc KTM MRW RALLY DAKAR EAM KTM - 450 cc 37:13:38 00:02:22
3 003 RODRIGUES Helder TEAM YAMAHA RACING YAMAHA - WRF 450 38:19:56 01:08:40
4 032 SVITKO Stefan HANT LOGOMOTION SLOVAKIA KTM - 450 RR 38:46:12 01:34:56
5 010 VILADOMS Jordi BORDONE-FERRARI KTM - Rally Replica 38:51:02 01:39:46
6 020 FARRES GUELL Gerard BORDONE-FERRARI KTM - 450 RALLY REPLICA 39:03:16 01:52:00
7 006 ULLEVALSETER Pal Anders TEAM ULLEVALSETER KTM - 450 R 39:15:22 02:04:06
8 016 PAIN Olivier TEAM YAMAHA RACING YAMAHA - 450 YZF Rally 39:51:31 02:40:15
9 034 BOTTURI ALESSANDRO BORDONE-FERRARI KTM - 450 RALLY REPLICA 39:55:42 02:44:26
10 028 ZANOL FELIPE KTM BRASIL KTM - 450 Replica 40:20:53 03:09:37
11 023 BARREDA BORT Joan HUSQVARNA RALLYE TEAM BY SPEEDBRAIN HUSQVARNA - Rally 450 RR 40:45:36 03:34:20
12 008 FARIA Ruben TEAM RED BULL KTM KTM - 450 CC RALLY 40:53:59 03:42:43
13 017 CZACHOR Jacek ORLEN TEAM KTM - 450 Replica 41:17:57 04:06:41
14 021 AUBERT JOHNNY KTM RALLY FACTORY TEAM KTM - 450 RALLY 41:22:58 04:11:42
15 018 KNUIMAN Henk WIM MOTORS DAKAR KTM - 450 REPLICA 41:58:47 04:47:31
16 015 VERHOEVEN Frans SHERCO RALLY RAID - CROCOAVENTURES SHERCO - SR 450 42:01:16 04:50:00
17 039 GYENES Emanuel VECTRA RACING KTM - 450 RR 42:05:50 04:54:34
18 035 CECI Paolo BORDONE-FERRARI KTM - 450 RR 42:10:02 04:58:46
19 026 RODRIGUES FILHO Jose helio HUSQVARNA RALLYE TEAM BY SPEEDBRAIN HUQSVARNA - RALLY 450 RR 42:26:27 05:15:11
20 012 PELLICER Jose Manuel HUSQVARNA RALLYE TEAM BY SPEEDBRAIN HUSQVARNA - Rally 450 RR 42:35:01 05:23:45
21 064 SCHRÖDER DANIEL MEMO TOURS - ALFIE COX TEAM KTM - 450cc 43:01:29 05:50:13
22 033 BETHYS Thierry YAMAHA - 450 YZF Rally 43:40:45 06:29:29
23 043 PISANO Michael MP CONCEPT KTM - 450 RR 43:50:28 06:39:12
24 144 CURTIS Darryl MEMO TOURS - ALFIE COX TEAM KTM - 450 Replica 43:55:45 06:44:29
25 089 NASCIMENTO DENISIO PETROBRAS LUBRAX HONDA - CRF 450 43:56:39 06:45:23
26 040 SERRADORI Mathieu KTM - 450 Rally 44:30:41 07:19:25
27 048 LIEFHEBBER Hans-jos KTM - 450 RR 44:36:12 07:24:56
28 082 GUINDANI Vincent HFP YAMAHA - YZR 450 44:43:24 07:32:08
29 110 BIRCH Christopher MEMO TOURS - ALFIE COX TEAM KTM - 450 Replica 44:53:44 07:42:28
30 007 GONCALVES Paulo HUSQVARNA RALLYE TEAM BY SPEEDBRAIN Husqvarna - Rally 450 RR 45:11:32 08:00:16
31 049 DABROWSKI Marek ORLEN TEAM KTM - 450 RR 45:31:30 08:20:14
32 041 PROHENS Felipe TAMARUGAL HONDA RACING XC RALLY TEAM HONDA (Transformada) - CRF450X RALLY 45:34:15 08:22:59
33 042 PROHENS Jaime TAMARUGAL HONDA RACING XC RALLY TEAM HONDA - CRF 450X RALLY 45:53:23 08:42:07
34 050 SALVATIERRA Juan Carlos GHR HONDA HONDA - CRF450X 46:31:51 09:20:35
35 060 WATT Stanley FRONT ROW GB / CRECENT KTM KTM - 450 RR 46:46:19 09:35:03
36 053 RODRIGUEZ Claudio TAMARUGAL HONDA RACING XC RALLY TEAM HONDA - CRF 450 X 46:57:45 09:46:29
37 066 LORMAND Etienne ROUSSILL'HOTEL - HFP YAMAHA - 450 WRF 47:05:13 09:53:57
38 029 BERGLUND Thomas HUSABERG RALLY TEAM SCANDINAVIA HUSABERG - FE 450 47:32:38 10:21:22
39 057 WILLEMSEN Daniel TEAM HONDA EUROPE HONDA - CRF 450 X 47:58:26 10:47:10
40 045 SANZ PLA-GILIBERT Eulalia GAS GAS GAS - GAS - EC 450 48:08:56 10:57:40
41 062 SCHWARZ David HUSABERG RALLYE RACING AUSTRALIA HUSABERG - FE450 48:21:56 11:10:40
42 183 RODRIGUEZ Pablo HONDA RACING ARGENTINA HONDA - CRF450X 48:25:04 11:13:48
43 154 GAJDOSECH ROBERTO ANTONIO ATUEL MOTOS YAMAHA - WR 450 48:30:50 11:19:34
44 071 BUTUZA Marcel BOANO HONDA - CRE F 450 X 48:35:49 11:24:33
45 046 BIANCHI PRATA Pedro TEAM BIANCHI PRATA / VODAFONE HUSQUARNA - TE449 RALLY 48:37:00 11:25:44
46 145 NUTTALL Dean MEMO TOURS - ALFIE COX TEAM KTM - 450 Replica 48:48:39 11:37:23
47 148 GOMEZ Mauricio PACO GOMEZ RALLY TEAM YAMAHA - WR 450 49:04:03 11:52:47
48 077 PICCO Franco FRANCO PICCO RACING YAMAHA - WRF 450 49:29:56 12:18:40
49 138 LECOQ SEBASTIEN TEAM PERFORMANCE ENDURO YAMAHA - 450 YZFE 49:31:49 12:20:33
50 014 CASTEU David TEAM YAMAHA RACING YAMAHA - 450 WRF Rally 49:36:22 12:25:06
51 181 RIOS FELIPE KTM PERU RALLY TEAM KTM - Rally Replica 50:01:53 12:50:37
52 185 SANCHEZ MARCELO TEAM RPM KAWASAKI KAWASAKI - KLX 450 R 50:03:09 12:51:53
53 059 CIOTTI Filippo FRANCO PICCO RACING RIEJU - MRT 450 50:03:56 12:52:40
54 081 SUESSE NED ADVRIDER/ NEDURO KTM - 450XCW 50:19:59 13:08:43
55 061 MATTOS Dimas BRASIL MOTO TOUR KTM - 450 RR 50:22:21 13:11:05
56 086 MUNK Jes X-RAGE RACING KTM - 450 50:28:38 13:17:22
57 159 CHITTICK Jamie GHR HONDA HONDA - CRF450X 50:35:40 13:24:24
58 092 HAMARD Stephane REUNION RALLYE RAID KTM - 450 RR 50:44:26 13:33:10
59 068 BARROT David POWERBIKE YAMAHA IPONE YAMAHA - 450 IZF RALLY 50:50:53 13:39:37
60 087 MEILLAT Christophe C.M PROMO KAWASAKI - KLX 450 R 51:03:46 13:52:30
61 056 MENARD Jean-Christophe HFP YAMAHA - 450 YZF 51:38:06 14:26:50
62 149 CIPKA DUSAN SLOVAKIA TURBOTEAM ZATKO BMW - G450X 52:07:34 14:56:18
63 165 MULDER GEERT TEAM HONDA EUROPE HONDA - CFR 450 X 52:17:31 15:06:15
64 069 PAYEN Hugo YAMAHA - 450 WRF 52:31:43 15:20:27
65 065 LAZARD Laurent MOTO TEAM BY ELF YAMAHA - WR 450 52:32:36 15:21:20
66 100 VESELY Jan CZECH DAKAR TEAM YAMAHA - WR 450F 52:52:03 15:40:47
67 072 GOUNON SERGE EMS KTM - 450 RR 52:58:46 15:47:30
68 168 GUIRAL DEMIAN AVANT MOTOS HONDA GENUINE OIL HONDA - CRF 450X 53:06:01 15:54:45
69 122 PALANTE Eric WIM MOTORS RACING DIVISION KTM - 450 RR FREVA 53:28:44 16:17:28
70 058 PUERTAS HERRERA Miguel HIMOINSA DAKAR TEAM YAMAHA - 450 WR 53:53:13 16:41:57
71 022 DUCLOS Alain GIOFIL APRILIA APRILIA - RXV 4.5 Rally 53:54:19 16:43:03
72 164 DEMELCHORI DIEGO TEAM RPM KAWASAKI KAWASAKI - 2009 54:13:54 17:02:38
73 076 PEDERZOLI Claudio ON-OFF RACING TEAM YAMAHA - WR 450 54:14:45 17:03:29
74 075 BUSIN Pablo MOTO TEAM BY ELF YAMAHA - 450 WR 54:45:51 17:34:35
75 093 GOMEZ Jorge VEMOTOR CANARIAS Husqvarna - 450cc 56:07:28 18:56:12
76 091 TONETTI NICOLA TEAM BOANO HONDA - CRF 450 X 56:13:13 19:01:57
77 073 BONY BRUNO EMS KTM - 450 RR 56:14:40 19:03:24
78 074 KOFMAN Erik KTM - 450 RR 56:32:52 19:21:36
79 080 PASCUAL Pablo oscar JINCHENG TEAM JINCHENG - JC450Y 56:33:37 19:22:21
80 107 BODINGER Ronnie HUSABERG FACTORY TEAM HUSABERG - FE 450 59:06:35 21:55:19
81 174 MARTÍNEZ Paco PACO MARTINEZ KAWASAKI - KX450 59:28:20 22:17:04
82 177 VAN GEEL MARCO TEAM HONDA EUROPE HONDA - CFR 450 X 59:50:55 22:39:39
83 085 PENATE MUNOZ Pedro Manuel KH7 VALSEBIKE KTM - 450 61:08:13 23:56:57
84 176 RAAF Greg MEMO TOURS - ALFIE COX TEAM KTM - 450 Replica 61:38:57 24:27:41
85 136 IGARIS GINTAUTAS YAMAHA - WR450F 61:46:56 24:35:40
86 102 ALAN Eduardo ELF ARGENTINA Yamaha - WR 450 62:39:52 25:28:36
87 150 BELAUSTEGUI Luis FREEDOM RALLY RACING KTM - SX 150 62:45:39 25:34:23
88 099 CHERPIN Pierre KTM - 450 RR 63:46:19 26:35:03
89 151 BEALUSTEGUI Juan Manuel AL LIMITE DAKAR 2012 YAMAHA - WR 450 F 63:59:31 26:48:15
90 120 ILLANES Rodrigo TARAPACA RALLY TEAM Husqvarna - TE 449 65:31:37 28:20:21
91 129 DEPOORTER Philippe WIM MOTORS DAKAR KTM - 450 67:29:50 30:18:34
92 131 THEURIOT Herve REVIVAL AVENTURES YAMAHA - 450 WRF 67:46:54 30:35:38
93 158 VELLUTINO Carlo PERUANOS AL DAKAR KTM - 450 EXC 2011 68:07:55 30:56:39
94 111 ESPINASSE SYLVAIN SHERCO RALLY RAID - CROCOAVENTURES SHERCO - SR 450 69:36:16 32:25:00
95 125 ASTORI Gianernesto ABC RALLY ACTION TEAM KTM - 450 RR 70:49:47 33:38:31
96 140 REINIKE MARCO MARCO REINIKE KTM - 450 RALLY REPLICA 72:37:46 35:26:30
97 152 TER BEEK RONALD GHR HONDA HONDA - CFR 450 X 72:49:57 35:38:41
98 112 GUYOMARC?H Yannick SCE PERFORMANCE / ASA POMPIERS DE PARIS YAMAHA - WRF 73:59:24 36:48:08
99 094 WEI Guanghui JINCHENG TEAM JINCHENG - JC 450Y 79:11:47 42:00:31
100 128 ANO Julio TEAM NORMAND RAID YAMAHA - WRF 450 79:45:53 42:34:37

 

 

Aucune note. Soyez le premier à attribuer une note !

Ajouter un commentaire
 

Créer un site gratuit avec e-monsite - Signaler un contenu illicite sur ce site